Regional Weather Roundup
Issued by NWS Boston, MA

Home | Current Version | Previous Version | Text Only | Print | Product List | Glossary On
Versions: 1 2 3 4 5 6 7 8 9 10 11 12 13 14 15 16 17 18 19 20 21 22 23 24 25 26 27
000
ASUS41 KBOX 081910
RWRBOX

REGIONAL WEATHER ROUNDUP
NATIONAL WEATHER SERVICE TAUNTON MA
200 PM EST THU DEC 08 2016

NOTE:  "FAIR" INDICATES FEW OR NO CLOUDS BELOW 12,000 FEET WITH NO
SIGNIFICANT WEATHER AND/OR OBSTRUCTIONS TO VISIBILITY.

MAZALL-082000-
EASTERN MASSACHUSETTS

CITY           SKY/WX    TMP DP  RH WIND       PRES   REMARKS
BOSTON         CLOUDY    42  31  64 SW9       29.79F
BEVERLY        CLOUDY    42  30  62 W7        29.77F
LAWRENCE       CLOUDY    42  30  62 W10       29.79F
BEDFORD        CLOUDY    42  28  57 W8        29.77F
BLUE HILL        N/A     38  30  73 SW9G18    29.76F WCI  31
NORWOOD        CLOUDY    43  31  62 SW8       29.79F
MARSHFIELD     CLOUDY    43  36  75 VRB5      29.78F
PLYMOUTH       CLOUDY    43  32  65 SW13      29.79F
TAUNTON        CLOUDY    43  33  68 SW7       29.80F
NEW BEDFORD    CLOUDY    44  33  65 W9        29.80S
$$

MAZALL-082000-
CAPE COD AND THE ISLANDS

CITY           SKY/WX    TMP DP  RH WIND       PRES   REMARKS
FALMOUTH       CLOUDY    45  37  76 MISG      29.79S
HYANNIS        CLOUDY    46  38  73 SW12      29.78S
CHATHAM        CLOUDY    45  39  79 SW6       29.80F
PROVINCETOWN   CLOUDY    45  33  63 SW18      29.78F
NANTUCKET      CLOUDY    47  38  71 W13       29.80F
MARTHAS VNYRD  CLOUDY    46  38  73 W10G18    29.80F
$$

MAZALL-082000-
CENTRAL AND WESTERN MASSACHUSETTS

CITY           SKY/WX    TMP DP  RH WIND       PRES   REMARKS
WORCESTER      CLOUDY    36  29  75 W10       29.76F WCI  28
FITCHBURG      CLOUDY    41  28  60 W8G18     29.79F
ORANGE         MOSUNNY   38  30  73 W3        29.78F
SPRINGFIELD    PTSUNNY   39  31  73 SW6       29.79F
WESTFIELD      CLOUDY    42  32  67 SW5       29.80F
NORTH ADAMS    FLURRIES  36  25  64 NW10G17   29.79S WCI  28
PITTSFIELD     CLOUDY    36  23  59 W15       29.76F WCI  27
$$

RIZALL-082000-
RHODE ISLAND

CITY           SKY/WX    TMP DP  RH WIND       PRES   REMARKS
PROVIDENCE     CLOUDY    42  30  62 W9        29.81F
NEWPORT        CLOUDY    44  31  60 W8        29.80F
BLOCK ISLAND   CLOUDY    44  29  55 W14G20    29.83S
SMITHFIELD     CLOUDY    40  31  70 VRB5      29.79F
WESTERLY       CLOUDY    45  26  47 SW7G16    29.82F
$$

CTZALL-082000-
CONNECTICUT

CITY           SKY/WX    TMP DP  RH WIND       PRES   REMARKS
BRADLEY INTL   PTSUNNY   42  30  62 SW7       29.81F
HARTFORD       PTSUNNY   42  26  53 W9        29.82F
BRIDGEPORT     CLOUDY    45  25  45 W10       29.85F
DANBURY        CLOUDY    40  22  48 W10       29.84F
GROTON         CLOUDY    47  31  53 W8        29.82F
NEW HAVEN      CLOUDY    43  26  51 W13       29.84F
CHESTER        FAIR      41  25  52 VRB5G13   29.82S
MERIDEN        PTSUNNY   44  23  43 SW10      29.83F
WILLIMANTIC    CLOUDY    43  29  57 W12       29.82F
OXFORD         PTSUNNY   39  25  56 W12G17    29.82F WCI  32
$$

MEZ002-015-021-024-NHZ003-005-008-011-012-014-VTZ005-008-082000-
NORTHERN NEW ENGLAND

CITY           SKY/WX    TMP DP  RH WIND       PRES   REMARKS
PORTLAND ME    PTSUNNY   42  29  59 W8        29.74F
BANGOR ME      PTSUNNY   36  31  82 N7        29.71F WCI  30
CONCORD NH     CLOUDY    41  27  57 VRB6      29.76F
MANCHESTER NH  CLOUDY    41  25  53 VRB7G16   29.76F
NASHUA NH      CLOUDY    40  28  62 W8        29.78F
PORTSMOUTH NH  CLOUDY    41  27  56 W12G20    29.75F
JAFFREY NH     CLOUDY    37  22  54 W9        29.76S WCI  30
KEENE NH       CLOUDY    38  28  67 VRB6      29.78F
BURLINGTON VT  PTSUNNY   37  26  64 S8        29.75F WCI  31
MT. WASHINGTON SNOW      12  12 100 W39G46      N/A  VSB 0   WCI -12
$$

NYZ052-076-082000-
EASTERN NEW YORK

CITY           SKY/WX    TMP DP  RH WIND       PRES   REMARKS
ALBANY         PTSUNNY   37  29  72 NW15      29.84R WCI  28
NEW YORK CITY  PTSUNNY   45  22  40 NW18      29.88F
$$

ANZALL-082000-
MARINE OBSERVATIONS

STATION/POSITION TIME  TEMP    WIND        PRES    VSBY  WAVE
                       AIR SEA DIR/SP/G                  HT/PER
                 (UTC) (F)     (DEG/KT/KT) (MB)    (MI)  (FT/S)
BOSTON BUOY      1850   43 50  240/ 12/ 16 1007.3F         2/11
BUZZARDS BAY     1800   44     250/ 18/ 20 1009.7F
NANTUCKET SOUND  NOT AVBL
MASS BAY-STELLWA 1804   43 48  250/ 10/ 14 1008.2F  1 7/8  2/ 7
ISLE OF SHOALS   1800   41     240/ 12/ 14 1008.1F
S OF BLOCK IS    1855      54                N/A           4/10
$$

......................KEY.........................
  SKY/WX - SKY CONDITION/PRESENT WEATHER
  TMP    - TEMPERATURE IN FAHRENHEIT
  DWPT   - DEWPOINT IN FAHRENHEIT
  RH     - RELATIVE HUMIDITY IN PERCENT
  WIND   - DIRECTION AND SPEED IN MPH
  PRES   - MEAN SEA LEVEL PRESSURE IN INCHES OF HG
  WCI    - WIND CHILL INDEX
  VSB    - VISIBILITY IN MILES
  HX     - HEAT INDEX
  TC     - TEMPERATURE IN CELSIUS
  VRB    - VARIABLE WIND DIRECTION
  N/A    - NOT AVAILABLE




USA.gov is the U.S. government's official web portal to all federal, state and local government web resources and services.